Location: Lane
(33.5226°N, 79.8788°W)
Time: 08:55:22
(UTC+00:00)

Tiros 1 despin weight - Pass Details

Date: 09 October 2022
Orbit: 590 x 637 km, 48.2° (Epoch: 28 November)

Event Time Altitude Azimuth Distance (km) Brightness Sun altitude
Rises 02:23:01 0° 297° (WNW) 2,893 ? -43.3°
Enters shadow 02:24:33 - 291° (WNW) 2,340 ? -43.6°
Reaches altitude 10° 02:25:34 10° 285° (WNW) 1,993 - -43.8°
Maximum altitude 02:29:27 27° 227° (SW) 1,199 - -44.5°
Drops below altitude 10° 02:33:21 10° 170° (S) 2,004 - -45.2°
Sets 02:35:56 0° 158° (SSE) 2,913 - -45.7°
